Weather Roundup
Issued by NWS Chicago, IL

Home | Current Version | Previous Version | Text Only | Print | Product List | Glossary Off
Versions: 1 2 3 4 5 6 7 8 9 10 11 12 13 14 15 16 17 18 19 20 21 22 23 24 25 26 27 28 29 30 31 32 33 34 35 36 37 38 39 40 41 42 43 44 45 46 47 48 49 50

508
NZUS59 KLOT 161803
HRRLOT

CHICAGO AREA WEATHER ROUNDUP
NATIONAL WEATHER SERVICE CHICAGO/ROMEOVILLE IL
1200 PM CST TUE JAN 16 2018

NOTE: "FAIR" INDICATES FEW OR NO CLOUDS BELOW 12,000 FEET WITH NO
SIGNIFICANT WEATHER AND/OR OBSTRUCTIONS TO VISIBILITY.

* THESE STATIONS ARE NOT UNDER NWS QUALITY CONTROL. THEY ALSO MAY NOT
  REPORT WEATHER SUCH AS PRECIPITATION OR FOG.

ILZ005-006-012>014-019>023-161900-
NORTHEAST ILLINOIS

CITY           SKY/WX    TMP DP  RH WIND       PRES   REMARKS
OHARE          LGT SNOW  22  15  75 NW13      30.44F WCI  10
6HR MIN TEMP:  13; 6HR MAX TEMP:  22; 6HR PCP: TRACE;

MIDWAY         PTSUNNY   23  15  71 NW15      30.44F WCI  10
6HR MIN TEMP:   8; 6HR MAX TEMP:  23; 6HR PCP: TRACE;

AURORA         CLOUDY    18  13  80 NW10      30.48F WCI   6
6HR MIN TEMP:   8; 6HR MAX TEMP:  18; 6HR PCP: TRACE;

LANSING*       LGT SNOW  18  15  87 W8        30.44F WCI   8
JOLIET*          N/A     19  13  76 W7G17     30.48F WCI  10
WAUKEGAN       LGT SNOW  26  13  57 VRB7      30.43F WCI  18
6HR MIN TEMP:  20; 6HR MAX TEMP:  26; 6HR PCP: TRACE;

DUPAGE AIRPORT PTSUNNY   20  13  74 NW13      30.45F WCI   7
6HR MIN TEMP:   9; 6HR MAX TEMP:  20; 6HR PCP: TRACE;

WHEELING       CLOUDY    23  13  65 NW17      30.45F WCI   9
6HR MIN TEMP:  16; 6HR MAX TEMP:  23; 6HR PCP: TRACE;

KANKAKEE*      PTSUNNY   11   5  76 W17       30.49F WCI  -6
MORRIS*        PTSUNNY   15  10  80 W13       30.49F WCI   1
LEWIS AIRPORT*   N/A     19  13  79 NW10      30.47F WCI   7
$$

WIZ051-052-058>065-066-070>072-161900-
SOUTHEAST WISCONSIN

CITY           SKY/WX    TMP DP  RH WIND       PRES   REMARKS
MILWAUKEE      PTSUNNY   22  11  62 NW13G22   30.44F WCI  10
6HR MIN TEMP:  19; 6HR MAX TEMP:  22; 6HR PCP:  0.02;

KENOSHA*       PTSUNNY   21  10  62 NW9       30.44F WCI  11
RACINE*        FLURRIES  22  13  68 NW13      30.45F WCI  10
BURLINGTON       N/A     21   9  59 N14G20    30.45F WCI   8
WAUKESHA       PTSUNNY   19   9  63 NW14      30.46F WCI   6
WEST BEND        N/A     21  10  63 N13       30.45S WCI   9
$$

INZ001>003-010>013-019-020-161900-
NORTHWEST INDIANA

CITY           SKY/WX    TMP DP  RH WIND       PRES   REMARKS
GARY*          SNOW      21  16  79 W12       30.44  VSB 1/2 WCI   9
MICHIGAN CITY* NOT AVBL
RENSSELAER*    NOT AVBL
VALPARAISO     LGT SNOW  15   9  76 SW8       30.42F WCI   4
$$

LMZ740>746-161900-
SOUTHERN LAKE MICHIGAN

STATION/POSITION TIME  SKY/WX   TEMP WIND        PRES    VSBY
                                AIR  DIR/SP/G
                 (UTC)          (F)  (DEG/KT/KT) (MB)    (MI)
HARRISON CRIB    1740            23  310/ 16/ 18   N/A
BURNHAM HARBOR   1800            22  310/  8/ 17   N/A
CALUMET HARBOR   1730            21  270/  6/ 12 1029.9F
BURNS HARBOR     1740            15  200/  9/ 14 1030.8F
MICHIGAN CITY    1740                140/  8/ 10   N/A
$$

ABBREVIATIONS USED IN REMARKS
   TC - TEMPERATURE IN CELSIUS
  WCI - WIND CHILL INDEX
   HX - HEAT INDEX
  VSB - VISIBILITY
$$




USA.gov is the U.S. government's official web portal to all federal, state and local government web resources and services.